sat.trackr.live / text

‹ back to catalog

STARLINK-37786

NORAD 69344 · 2026-122R

PAYLOAD ACTIVE UNKNOWN

§ Identity

Operator
Country
US
Launch date
2026-06-03
Launch site
AFWTR
Launch vehicle
Mass (kg)
RCS (m²)

Purposes: comms

External: N2YO · Heavens-Above · Gunter

§ Orbital elements

Epoch: 2026-09-20T01:32:04.585344Z

Period
93.90 min
Inclination
97.2821°
Eccentricity
0.0002579
Mean motion
15.33466131 rev/d
Perigee alt
463.7 km
Apogee alt
467.2 km
Semi-major
6,843.6 km
B*
5.9130e-4
RAAN
291.7054°
Arg perigee
86.8048°
Mean anomaly
273.3490°
Rev number
1,673

§ Raw data

STARLINK-377861 69344U 26122R   26263.06394196  .00019077  00000+0  59130-3 0  99902 69344  97.2821 291.7054 0002579  86.8048 273.3490 15.33466131 16730

JSON: /api/v1/satellites/69344 · /tle

For live sub-satellite position, see the globe view (requires WebGL).

§ Visibility from observer

Set your observer location to see the next 7 days of passes ≥ 10°. The values pass through the URL so the page stays shareable.

No JS? Fill the form by hand. The geolocation button needs JavaScript.